{"data":{"norad_id":48995,"intl_designator":"2021-060AE","name":"ONEWEB-0277","alt_names":[],"object_type":"PAYLOAD","status":"ACTIVE","operator":null,"country":"UK","launch_date":"2021-07-01","launch_site_code":"VOSTO","launch_vehicle":null,"mission":null,"orbit_class":"UNKNOWN","rcs_meters":null,"size_class":null,"mass_kg":null,"dimensions":null,"purposes":["comms"],"wikipedia_slug":null,"has_3d_model":false,"image_url":null,"decayed_at":null,"tle_current":{"epoch":"2026-09-20T04:41:34.745856Z","epoch_age_seconds":48268,"freshness":"FRESH","line1":"1 48995U 21060AE  26263.19554104 -.00000020  00000+0 -86511-4 0  9990","line2":"2 48995  87.9153 209.9168 0002003  72.1406 287.9943 13.16595572252061","mean_motion":13.16595572,"eccentricity":0.0002003,"inclination_deg":87.9153,"raan_deg":209.9168,"arg_perigee_deg":72.1406,"mean_anomaly_deg":287.9943,"bstar":-8.6511e-5,"rev_number":25206,"period_min":109.37299430626,"perigee_km":1196.2341721269,"apogee_km":1199.2690731091,"semimajor_km":7575.888622618,"source":"CELESTRAK","updated_at":"2026-09-20T09:00:44.628688Z"}}}